Tracking 19250 objects as of 23-Sep-2018
HD Live streaming from Space Station
objects crossing your sky now

FENGYUN 1C DEB

Track FENGYUN 1C DEB now!
10-day predictions


NORAD ID: 35243
Int'l Code: 1999-025DRB
Perigee: 648.3 km
Apogee: 829.8 km
Inclination: 98.9 °
Period: 99.4 minutes
Semi major axis: 7110 km
RCS: 0.0017 m2 (small)
Launch date: May 10, 1999
Source: People's Republic of China (PRC)
Launch site: Taiyaun Space Center, China (TSC)

Note: This is SATELLITE DEBRIS
aabbcc
Your satellite tracking list
Your tracking list is empty




NASA's NSSDC Master Catalog

Two Line Element Set (TLE):
1 35243U 99025DRB 18265.38500562 +.00000594 +00000-0 +15781-3 0  9996
2 35243 098.9280 127.8021 0127626 002.9722 357.2199 14.48083178525880
Source of the keplerian elements: AFSPC